Location: *
(37.5724°S, 58.0067°E)
Time: 04:03:52
(UTC+00:00)

NOSS 3-1 (A) - Pass Details

Date: 24 June 2021
Orbit: 729 x 1483 km, 63.4° (Epoch: 23 July)

Event Time Altitude Azimuth Distance (km) Brightness Sun altitude
Rises 15:06:35 0° 207° (SSW) 3,846 6.8 -24.7°
Reaches altitude 10° 15:09:46 10° 197° (SSW) 2,758 5.9 -25.3°
Enters shadow 15:12:58 24° 174° (S) 1,825 4.7 -26.0°
